FW2294 Weather Reports


time (UTC)temp
F
wind
direction
speed
knots
gust
knots
rain 1hr
in
rain 24hr
in
rain mn
in
humidity
%
barometer
mb
20260502160423 56 89 1.7 2.6 0.00 0.00 0.00 48 1012.4
20260502151901 56 120 0.0 0.9 0.00 0.00 0.00 52 1012.5
20260502151357 56 163 1.7 2.6 0.00 0.00 0.00 52 1012.4
20260502150855 56 128 0.9 0.9 0.00 0.00 0.00 55 1012.4
20260502150351 56 72 1.7 2.6 0.00 0.00 0.00 55 1012.7
20260502130739 54 137 0.9 0.9 0.00 0.00 0.00 70 1012.1
20260502130237 54 126 0.9 0.9 0.00 0.00 0.00 72 1012.0
20260502123723 54 134 0.0 0.0 0.00 0.00 0.00 77 1011.9
20260502123256 54 125 0.0 5.2 0.00 0.00 0.00 76 1028.9
20260502123219 53 139 0.0 1.7 0.00 0.00 0.00 76 1011.8
20260502122716 53 134 0.0 0.9 0.00 0.00 0.00 77 1011.9
20260502122212 53 141 0.9 1.7 0.00 0.00 0.00 77 1011.7
20260502121711 53 142 0.9 2.6 0.00 0.00 0.00 78 1011.5
20260502121209 52 132 0.0 0.9 0.00 0.00 0.00 81 1011.7
20260502120705 52 125 0.0 0.9 0.00 0.00 0.00 84 1011.5
20260502120201 51 137 0.0 0.0 0.00 0.00 0.00 89 1011.5
20260502115700 50 128 0.0 1.7 0.00 0.00 0.00 93 1011.4
20260502115155 50 134 0.0 0.0 0.00 0.00 0.00 96 1011.4
20260502114651 50 135 0.0 0.0 0.00 0.00 0.00 97 1011.7
20260502114149 50 135 0.0 0.0 0.00 0.00 0.00 98 1011.5
20260502113646 50 127 0.0 0.0 0.00 0.00 0.00 98 1011.5
20260502113254 50 137 0.0 0.0 0.00 0.00 0.00 98 1028.5
20260502113144 50 135 0.0 0.0 0.00 0.00 0.00 98 1011.6
20260502112642 49 138 0.0 0.0 0.00 0.00 0.00 98 1011.7
20260502112139 49 138 0.0 0.0 0.00 0.00 0.00 98 1011.6
20260502111636 49 138 0.0 0.0 0.00 0.00 0.00 98 1011.4
20260502111134 49 138 0.0 0.0 0.00 0.00 0.00 98 1011.6
20260502110632 49 138 0.0 0.0 0.00 0.00 0.00 98 1011.5
20260502110129 49 138 0.0 0.0 0.00 0.00 0.00 98 1011.6
20260502110047 49 138 0.0 0.0 0.00 0.00 0.00 98 1028.6
20260502105626 48 138 0.0 0.0 0.00 0.00 0.00 98 1011.6
20260502105123 48 138 0.0 0.0 0.00 0.00 0.00 98 1011.7
20260502104620 48 138 0.0 0.0 0.00 0.00 0.00 98 1011.6
20260502104118 48 138 0.0 0.0 0.00 0.00 0.00 98 1011.6
20260502103615 48 138 0.0 0.0 0.00 0.00 0.00 98 1011.4
20260502103113 48 137 0.0 0.0 0.00 0.00 0.00 98 1011.6
20260502102609 48 137 0.0 0.0 0.00 0.00 0.00 98 1011.3
20260502102106 48 137 0.0 0.0 0.00 0.00 0.00 97 1011.1
20260502101604 48 138 0.0 0.0 0.00 0.00 0.00 97 1011.1
20260502101102 48 138 0.0 0.0 0.00 0.00 0.00 97 1010.9
20260502100600 48 139 0.0 0.0 0.00 0.00 0.00 97 1011.0
20260502091032 48 139 0.0 0.0 0.00 0.00 0.00 97 1010.7
20260502090529 48 136 0.0 0.0 0.00 0.00 0.00 96 1010.7
20260502071424 49 136 0.0 0.0 0.00 0.00 0.00 93 1010.5
20260502070922 49 134 0.0 0.0 0.00 0.00 0.00 93 1010.4
20260502070419 49 138 0.0 0.0 0.00 0.00 0.00 93 1010.3
20260502070033 50 135 0.0 0.9 0.00 0.00 0.00 93 1027.2
20260502065918 49 138 0.0 0.0 0.00 0.00 0.00 93 1010.3
20260502065416 49 139 0.0 0.0 0.00 0.00 0.00 93 1010.3
20260502064914 49 136 0.0 0.0 0.00 0.00 0.00 93 1010.3
20260502064412 49 135 0.0 0.0 0.00 0.00 0.00 93 1010.3
20260502063909 49 133 0.0 0.0 0.00 0.00 0.00 93 1010.1
20260502063406 49 137 0.0 0.0 0.00 0.00 0.00 93 1010.2
20260502062904 49 132 0.0 0.0 0.00 0.00 0.00 92 1010.1
20260502062401 49 131 0.0 0.0 0.00 0.00 0.00 92 1010.0
20260502061859 49 141 0.0 0.0 0.00 0.00 0.00 92 1010.4
20260502061357 49 141 0.0 0.0 0.00 0.00 0.00 92 1010.3
20260502060853 49 141 0.0 0.0 0.00 0.00 0.00 92 1010.4
20260502060348 49 143 0.0 0.0 0.00 0.00 0.00 91 1010.5
20260502055845 49 141 0.0 0.0 0.00 0.00 0.00 90 1010.5
20260502055343 49 141 0.0 0.0 0.00 0.00 0.00 89 1010.6
20260502054843 49 141 0.0 0.0 0.00 0.00 0.00 89 1010.7
20260502054340 50 141 0.0 0.0 0.00 0.00 0.00 89 1010.8
20260502053837 50 141 0.0 0.0 0.00 0.00 0.00 89 1010.8
20260502053334 50 143 0.0 0.0 0.00 0.00 0.00 88 1010.8
20260502053254 51 143 0.0 0.0 0.00 0.00 0.00 88 1027.8
20260502052832 50 138 0.0 0.0 0.00 0.00 0.00 87 1010.9
20260502052330 50 138 0.0 0.0 0.00 0.00 0.00 86 1010.8
20260502051827 50 138 0.0 0.0 0.00 0.00 0.00 86 1010.9
20260502051326 51 136 0.0 0.0 0.00 0.00 0.00 86 1011.0
20260502050822 51 136 0.0 0.0 0.00 0.00 0.00 86 1011.1
20260502050318 51 136 0.0 0.0 0.00 0.00 0.00 85 1011.3
20260502045815 51 134 0.0 0.0 0.00 0.00 0.00 85 1011.2
20260502045312 51 135 0.0 0.0 0.00 0.00 0.00 84 1011.2
20260502044809 51 136 0.0 0.0 0.00 0.00 0.00 83 1011.3
20260502044305 52 135 0.0 0.0 0.00 0.00 0.00 83 1011.4
20260502043803 52 136 0.0 0.0 0.00 0.00 0.00 82 1011.2
20260502043300 52 136 0.0 0.0 0.00 0.00 0.00 82 1011.3
20260502043255 53 136 0.0 2.6 0.00 0.00 0.00 82 1028.2
20260502042759 52 136 0.0 0.0 0.00 0.00 0.00 81 1011.3
20260502042257 52 135 0.0 0.0 0.00 0.00 0.00 81 1011.3
20260502041754 53 143 0.0 0.0 0.00 0.00 0.00 81 1011.3
20260502041251 53 138 0.0 0.0 0.00 0.00 0.00 79 1011.3
20260502040748 53 138 0.0 0.9 0.00 0.00 0.00 79 1011.1
20260502040245 53 136 0.0 0.9 0.00 0.00 0.00 79 1011.2
20260502035741 53 145 0.0 0.0 0.00 0.00 0.00 79 1011.2
20260502035238 53 140 0.0 0.9 0.00 0.00 0.00 78 1011.2
20260502034736 53 143 0.0 0.0 0.00 0.00 0.00 78 1011.3
20260502034233 54 159 0.9 0.9 0.00 0.00 0.00 77 1011.5
20260502033731 54 145 0.0 0.0 0.00 0.00 0.00 77 1011.3
20260502033253 55 143 0.0 0.9 0.00 0.00 0.00 77 1028.3
20260502033229 54 145 0.0 0.0 0.00 0.00 0.00 77 1011.4
20260502032726 54 148 0.9 0.9 0.00 0.00 0.00 77 1011.2
20260502032221 54 143 0.0 0.0 0.00 0.00 0.00 76 1011.3
20260502031720 54 142 0.0 0.0 0.00 0.00 0.00 76 1011.2
20260502031217 54 142 0.0 0.0 0.00 0.00 0.00 76 1011.2
20260502030716 55 145 0.0 0.0 0.00 0.00 0.00 75 1011.0
20260502030214 55 146 0.0 0.0 0.00 0.00 0.00 74 1010.9
20260502025710 55 146 0.0 0.9 0.00 0.00 0.00 74 1011.1
20260502025209 55 148 0.0 0.0 0.00 0.00 0.00 74 1010.8
20260502024706 55 148 0.0 0.0 0.00 0.00 0.00 73 1010.9
20260502024204 55 157 0.0 0.0 0.00 0.00 0.00 73 1010.8
20260502023702 55 147 0.0 0.9 0.00 0.00 0.00 73 1010.9
20260502023253 56 152 0.9 1.7 0.00 0.00 0.00 73 1027.9
20260502023158 55 149 0.0 0.0 0.00 0.00 0.00 72 1010.9
20260502022655 55 148 0.0 0.9 0.00 0.00 0.00 72 1011.0
20260502022152 55 168 0.9 0.9 0.00 0.00 0.00 72 1011.2
20260502021650 55 142 0.0 0.0 0.00 0.00 0.00 71 1011.0
20260502021147 56 149 0.0 0.0 0.00 0.00 0.00 71 1011.1
20260502020644 56 143 0.0 0.0 0.00 0.00 0.00 71 1011.1
20260502020141 56 144 0.0 0.9 0.00 0.00 0.00 70 1011.1
20260502015639 56 145 0.0 0.0 0.00 0.00 0.00 70 1011.0
20260502015134 56 144 0.0 0.9 0.00 0.00 0.00 68 1011.2
20260502014632 56 147 0.0 0.0 0.00 0.00 0.00 69 1011.0
20260502014129 56 143 0.0 0.0 0.00 0.00 0.00 68 1010.9
20260502013625 56 148 0.0 0.0 0.00 0.00 0.00 69 1010.7
20260502013252 57 144 0.0 0.9 0.00 0.00 0.00 69 1027.6
20260502013121 56 156 0.0 0.9 0.00 0.00 0.00 68 1010.8
20260502012619 55 144 0.0 0.0 0.00 0.00 0.00 68 1010.8
20260502012117 55 142 0.0 0.9 0.00 0.00 0.00 69 1010.6
20260502011613 55 144 0.0 0.0 0.00 0.00 0.00 68 1010.5
20260502011109 54 146 0.9 0.9 0.00 0.00 0.00 69 1010.6
20260502010606 55 138 0.0 0.0 0.00 0.00 0.00 69 1010.4
20260502005600 55 141 0.0 0.0 0.00 0.00 0.00 67 1010.3
20260502005058 55 142 0.0 0.0 0.00 0.00 0.00 66 1010.3
20260502004553 56 144 0.0 0.0 0.00 0.00 0.00 66 1010.1
20260502004050 56 144 0.0 0.0 0.00 0.00 0.00 65 1009.9
20260502003549 56 140 0.0 0.0 0.00 0.00 0.00 63 1009.9
20260502003254 57 139 0.0 0.0 0.00 0.00 0.00 63 1026.6
20260502003045 57 139 0.0 0.0 0.00 0.00 0.00 63 1010.1
20260502002542 57 139 0.0 0.0 0.00 0.00 0.00 61 1009.9
20260502002039 57 139 0.0 0.0 0.00 0.00 0.00 60 1009.9
20260502001537 58 138 0.0 0.0 0.00 0.00 0.00 59 1009.9
20260502001033 58 138 0.0 0.0 0.00 0.00 0.00 58 1009.8
20260502000532 59 139 0.0 0.0 0.00 0.00 0.00 57 1010.1
20260502000029 59 139 0.0 0.0 0.00 0.00 0.00 55 1010.1
20260501235524 60 137 0.0 0.0 0.00 0.00 0.00 55 1010.0
20260501235020 60 139 0.0 0.0 0.00 0.00 0.00 52 1009.8
20260501234516 61 143 0.0 0.0 0.00 0.00 0.00 51 1009.9
20260501234015 61 143 0.0 0.0 0.00 0.00 0.00 49 1009.7
20260501233512 62 143 0.0 0.0 0.00 0.00 0.00 48 1009.8
20260501233254 63 149 0.0 6.1 0.00 0.00 0.00 47 1026.6
20260501233008 62 142 0.0 0.0 0.00 0.00 0.00 47 1009.7
20260501232504 63 138 0.0 0.0 0.00 0.00 0.00 48 1009.8
20260501232003 64 138 0.0 0.0 0.00 0.00 0.00 46 1009.8
20260501231500 64 141 0.0 0.0 0.00 0.00 0.00 42 1009.7
20260501230958 64 141 0.0 0.0 0.00 0.00 0.00 42 1009.8
20260501230457 65 144 0.0 0.0 0.00 0.00 0.00 41 1009.8
20260501225954 65 141 0.9 0.9 0.00 0.00 0.00 40 1009.9
20260501225451 65 149 0.9 2.6 0.00 0.00 0.00 40 1009.9
20260501224947 65 163 2.6 2.6 0.00 0.00 0.00 40 1009.9
20260501224445 66 144 0.9 1.7 0.00 0.00 0.00 39 1009.9
20260501223942 66 152 0.9 1.7 0.00 0.00 0.00 40 1009.9
20260501223438 66 161 0.9 2.6 0.00 0.00 0.00 41 1009.9
20260501223255 67 143 0.9 5.2 0.00 0.00 0.00 40 1026.6
20260501222933 66 145 0.0 0.9 0.00 0.00 0.00 40 1010.0
20260501222431 66 150 0.0 2.6 0.00 0.00 0.00 40 1010.1
20260501221927 66 140 1.7 1.7 0.00 0.00 0.00 40 1010.0
20260501221425 67 133 0.9 2.6 0.00 0.00 0.00 39 1009.9
20260501220922 67 180 0.9 1.7 0.00 0.00 0.00 40 1010.0
20260501220420 67 189 1.7 1.7 0.00 0.00 0.00 38 1010.1
20260501215915 67 151 0.9 1.7 0.00 0.00 0.00 39 1010.0
20260501215412 68 230 1.7 2.6 0.00 0.00 0.00 39 1009.9
20260501214908 68 149 0.9 5.2 0.00 0.00 0.00 38 1009.8
20260501214403 68 158 0.9 1.7 0.00 0.00 0.00 39 1009.9
20260501213858 68 170 0.0 2.6 0.00 0.00 0.00 36 1010.0
20260501213356 69 139 0.9 1.7 0.00 0.00 0.00 35 1009.9
20260501213254 70 162 0.9 5.2 0.00 0.00 0.00 34 1026.5
20260501212851 71 286 1.7 5.2 0.00 0.00 0.00 33 1010.0
20260501212348 73 129 0.0 1.7 0.00 0.00 0.00 30 1010.0
20260501211845 72 171 0.9 1.7 0.00 0.00 0.00 31 1010.0
20260501211343 72 237 1.7 2.6 0.00 0.00 0.00 30 1009.9
20260501210840 72 144 0.0 2.6 0.00 0.00 0.00 31 1010.0
20260501210337 71 179 1.7 1.7 0.00 0.00 0.00 33 1010.0
20260501205958 74 176 0.9 3.5 0.00 0.00 0.00 33 1027.1
20260501205833 72 170 1.7 4.3 0.00 0.00 0.00 32 1010.0
20260501205330 72 148 0.9 2.6 0.00 0.00 0.00 32 1009.9
20260501204827 75 185 0.9 5.2 0.00 0.00 0.00 31 1010.1
20260501204323 74 164 0.9 1.7 0.00 0.00 0.00 30 1010.3
20260501203819 73 148 0.9 1.7 0.00 0.00 0.00 30 1010.4
20260501203317 73 162 1.7 1.7 0.00 0.00 0.00 32 1010.3
20260501202814 74 239 0.9 4.3 0.00 0.00 0.00 30 1010.4
20260501202311 74 218 1.7 2.6 0.00 0.00 0.00 31 1010.6
20260501201808 72 146 0.0 0.9 0.00 0.00 0.00 33 1010.4
20260501201304 74 133 2.6 4.3 0.00 0.00 0.00 31 1010.7
20260501200801 73 143 0.0 0.9 0.00 0.00 0.00 33 1010.7
20260501200258 73 129 0.0 1.7 0.00 0.00 0.00 32 1011.0
20260501195756 72 174 0.9 1.7 0.00 0.00 0.00 31 1011.0
20260501195251 72 153 1.7 2.6 0.00 0.00 0.00 31 1011.0
20260501194748 73 243 2.6 2.6 0.00 0.00 0.00 31 1011.1
20260501194244 73 145 0.0 1.7 0.00 0.00 0.00 31 1011.1
20260501193740 72 167 0.0 2.6 0.00 0.00 0.00 37 1011.2
20260501193254 73 178 0.0 3.5 0.00 0.00 0.00 32 1027.9
20260501193239 73 259 1.7 2.6 0.00 0.00 0.00 33 1011.3
20260501192736 72 153 1.7 1.7 0.00 0.00 0.00 33 1011.4
20260501192232 71 247 1.7 2.6 0.00 0.00 0.00 33 1011.5
20260501191730 71 173 1.7 2.6 0.00 0.00 0.00 34 1011.6
20260501191227 72 178 0.9 2.6 0.00 0.00 0.00 31 1011.6
20260501190723 71 147 0.9 1.7 0.00 0.00 0.00 36 1011.7
20260501190219 71 156 0.0 0.9 0.00 0.00 0.00 36 1011.7
20260501185715 70 150 0.9 0.9 0.00 0.00 0.00 35 1011.8
20260501185211 69 209 0.9 1.7 0.00 0.00 0.00 32 1011.9
20260501184707 70 143 0.9 1.7 0.00 0.00 0.00 34 1012.2
20260501184203 70 151 0.0 1.7 0.00 0.00 0.00 32 1012.2
20260501183659 70 168 0.9 1.7 0.00 0.00 0.00 32 1012.3
20260501183241 70 183 1.7 5.2 0.00 0.00 0.00 32 1029.3
20260501183156 69 185 0.9 2.6 0.00 0.00 0.00 32 1012.4
20260501182652 69 163 0.9 4.3 0.00 0.00 0.00 34 1012.3
20260501182149 69 145 0.9 2.6 0.00 0.00 0.00 35 1012.5
20260501181646 69 227 2.6 2.6 0.00 0.00 0.00 35 1012.6
20260501181143 69 173 0.0 0.9 0.00 0.00 0.00 33 1012.7
20260501180641 69 142 0.9 1.7 0.00 0.00 0.00 36 1012.7
20260501180137 70 143 0.9 5.2 0.00 0.00 0.00 33 1012.7
20260501175634 69 143 0.0 2.6 0.00 0.00 0.00 35 1012.6
20260501175131 70 219 2.6 4.3 0.00 0.00 0.00 34 1012.9
20260501174628 70 126 0.0 1.7 0.00 0.00 0.00 34 1013.0
20260501174125 68 136 0.0 0.9 0.00 0.00 0.00 35 1013.0
20260501173623 69 143 0.0 1.7 0.00 0.00 0.00 37 1013.0
20260501173241 69 115 0.0 3.5 0.00 0.00 0.00 38 1030.0
20260501173119 68 195 0.9 1.7 0.00 0.00 0.00 36 1013.0
20260501172615 68 121 2.6 2.6 0.00 0.00 0.00 37 1013.0
20260501172110 68 197 1.7 1.7 0.00 0.00 0.00 38 1013.4
20260501171607 68 143 0.0 0.9 0.00 0.00 0.00 36 1013.1
20260501171104 66 204 0.9 2.6 0.00 0.00 0.00 37 1013.1
20260501170601 67 171 1.7 2.6 0.00 0.00 0.00 38 1013.5
20260501170057 66 296 0.0 1.7 0.00 0.00 0.00 38 1013.0
20260501165555 65 147 0.9 1.7 0.00 0.00 0.00 40 1013.1
20260501165052 64 152 0.9 1.7 0.00 0.00 0.00 41 1013.4
20260501164550 66 93 0.9 1.7 0.00 0.00 0.00 41 1013.3
20260501164047 65 116 0.0 1.7 0.00 0.00 0.00 40 1013.4
20260501163543 67 208 1.7 1.7 0.00 0.00 0.00 35 1013.6
20260501163242 69 169 0.9 3.5 0.00 0.00 0.00 36 1030.4
20260501163040 67 136 0.0 0.0 0.00 0.00 0.00 36 1013.5
20260501162536 65 143 0.0 1.7 0.00 0.00 0.00 36 1013.6
20260501162033 65 130 0.0 0.9 0.00 0.00 0.00 38 1013.8
20260501161531 65 129 0.0 0.9 0.00 0.00 0.00 39 1013.7
20260501161027 65 152 0.0 1.7 0.00 0.00 0.00 36 1013.9